Station CSXA2 - Cape Spencer WX Image indicating link to RSS feed of recent meteorological observations for station CSXA2


Conditions at CSXA2 as of
(1:03 am AKDT)
0903 GMT on 04/21/2024:
     

Click on the graph icon in the table below to see a time series plot of the last five days of that observation.

5-day plot - Wind Direction Wind Direction (WDIR):ESE ( 120 deg true )
5-day plot - Wind Speed Wind Speed (WSPD): 3 kts
5-day plot - Wind Gust Wind Gust (GST): 9 kts
5-day plot - Atmospheric Pressure Atmospheric Pressure (PRES):29.67 in
5-day plot - Wind Speed at 10 Meters Wind Speed at 10 meters (WSPD10M): 4 kts
5-day plot - Wind Speed at 20 Meters Wind Speed at 20 meters (WSPD20M): 4 kts
5-day plot -  Wind Speed, Wind Gust and Atmospheric Pressure Combined plot of Wind Speed, Gust, and Air Pressure
Previous observations
TIME
(AKDT)
5-day plot - Wind Direction
WDIR
 
5-day plot - Wind Speed
WSPD
kts
5-day plot - Wind Gust
GST
kts
5-day plot - Wave Height
WVHT
ft
5-day plot - Dominant Wave Period
DPD
sec
5-day plot - Average Wave Period
APD
sec
5-day plot - Mean Wave Direction
MWD
 
5-day plot - Atmospheric Pressure
PRES
in
5-day plot - Pressure Tendency
PTDY
in
5-day plot - Air Temperature
ATMP
°F
5-day plot - Water Temperature
WTMP
°F
5-day plot - Dew Point
DEWP
°F
5-day plot - Salinity
SAL
psu
5-day plot - Visibility
VIS
nmi
5-day plot - Tide (above MLLW)
TIDE
ft
2024-04-21 12:53 amESE 3 9----29.67-------
2024-04-21 12:43 amESE 4 11----29.67-------
2024-04-21 12:33 amESE 7 11----29.67-------
2024-04-21 12:24 amESE 5 12----29.67-------
2024-04-21 12:14 am SE 5 10----29.67-------
2024-04-21 12:03 am SE 5 8----29.67-------
2024-04-20 11:53 pm E 6 9----29.67-------
2024-04-20 11:43 pm E 8 10----29.66-------
2024-04-20 11:33 pmESE 5 10----29.66-------
2024-04-20 11:24 pmESE 5 10----29.66-------
2024-04-20 11:13 pmESE 5 9----29.67-------
2024-04-20 11:03 pmENE 1 3----29.67-------
2024-04-20 10:53 pmENE 3 5----29.66-------
2024-04-20 10:43 pmNNW 2 4----29.66-------
2024-04-20 10:33 pmSSW 3 5----29.67-------
2024-04-20 10:23 pm S 2 4----29.67-------
2024-04-20 10:13 pm S 2 4----29.67-------
2024-04-20 10:03 pm SE 4 6----29.66-------
2024-04-20 09:53 pmSSE 3 5----29.67-------
2024-04-20 09:43 pmESE 3 5----29.67-------
2024-04-20 09:33 pm E 5 6----29.67-------
2024-04-20 09:23 pm E 6 7----29.67-------
2024-04-20 09:13 pmESE 5 7----29.67-------
2024-04-20 09:03 pmESE 5 7----29.66-------
2024-04-20 08:53 pmESE 6 8----29.66-------
2024-04-20 08:44 pmESE 5 7----29.66-------
2024-04-20 08:34 pmESE 5 5----29.66-------
2024-04-20 08:24 pmESE 4 5----29.66-------
2024-04-20 08:13 pmESE 5 6----29.66-------
2024-04-20 08:03 pmESE 5 7----29.66-------
2024-04-20 07:53 pmESE 5 7----29.66-------
2024-04-20 07:43 pm SE 4 6----29.66-------
2024-04-20 07:33 pm SE 5 7----29.66-------
2024-04-20 07:23 pmESE 5 8----29.66-------
2024-04-20 07:13 pmNNW 2 4----29.66-------
2024-04-20 07:03 pmNNW 5 6----29.67-------
2024-04-20 06:53 pm NW 7 10----29.67-------
2024-04-20 06:43 pm NW 9 11----29.67-------
2024-04-20 06:33 pm NW 10 12----29.67-------
2024-04-20 06:23 pm NW 10 12----29.67-------
2024-04-20 06:13 pm NW 10 12----29.67-------
2024-04-20 06:03 pm NW 10 12----29.67-------
2024-04-20 05:53 pm NW 9 11----29.67-------
2024-04-20 05:43 pm NW 10 11----29.68-------
2024-04-20 05:33 pm NW 9 12----29.68-------
2024-04-20 05:24 pm NW 8 11----29.68-------
2024-04-20 05:13 pmWNW 7 10----29.69-------
2024-04-20 05:03 pm NW 6 8----29.69-------
2024-04-20 04:53 pmWNW 4 6----29.69-------
2024-04-20 04:43 pm W 3 6----29.70-------
2024-04-20 04:33 pm W 3 5----29.70-------
2024-04-20 04:23 pm W 3 4----29.70-------
2024-04-20 04:13 pmWSW 2 4----29.71-------
2024-04-20 03:53 pm SW 1 3----29.72-------
2024-04-20 03:43 pmWSW 2 5----29.72-------
2024-04-20 03:33 pmWSW 3 6----29.72-------
2024-04-20 03:23 pm W 4 6----29.72-------
2024-04-20 03:13 pmNNW 6 9----29.73-------
2024-04-20 03:03 pmESE 7 13----29.72-------
2024-04-20 02:53 pmESE 9 14----29.72-------
2024-04-20 02:43 pmESE 8 13----29.72-------
2024-04-20 02:34 pmESE 9 14----29.73-------
2024-04-20 02:24 pmESE 9 15----29.73-------
2024-04-20 02:13 pmESE 10 15----29.73-------
2024-04-20 02:03 pmESE 10 15----29.73-------
2024-04-20 01:53 pmESE 8 13----29.74-------
2024-04-20 01:43 pmESE 9 13----29.75-------
2024-04-20 01:33 pmESE 7 14----29.75-------
2024-04-20 01:23 pmESE 8 14----29.75-------
2024-04-20 01:13 pmESE 9 14----29.75-------
2024-04-20 01:03 pmESE 8 13----29.76-------
2024-04-20 12:53 pmESE 10 15----29.76-------
2024-04-20 12:43 pmESE 10 15----29.76-------
2024-04-20 12:33 pmESE 11 15----29.76-------
2024-04-20 12:23 pmESE 11 16----29.76-------
2024-04-20 12:13 pmESE 11 16----29.77-------
2024-04-20 12:03 pmESE 11 16----29.77-------
2024-04-20 11:53 amESE 11 17----29.77-------
2024-04-20 11:43 amESE 12 18----29.77-------
2024-04-20 11:33 amESE 12 17----29.78-------
2024-04-20 11:23 amESE 12 18----29.78-------
2024-04-20 11:13 amESE 12 17----29.78-------
2024-04-20 11:03 amESE 13 18----29.78-------
2024-04-20 10:53 amESE 13 18----29.79-------
2024-04-20 10:43 amESE 12 17----29.79-------
2024-04-20 10:33 amESE 12 19----29.79-------
2024-04-20 10:23 amESE 13 18----29.80-------
2024-04-20 10:13 am E 13 19----29.80-------
2024-04-20 10:03 amESE 13 21----29.80-------
2024-04-20 09:53 amESE 13 21----29.80-------
2024-04-20 09:43 amESE 13 19----29.80-------
2024-04-20 09:33 amESE 14 20----29.80-------
2024-04-20 09:23 amESE 14 20----29.80-------
2024-04-20 09:13 amESE 14 20----29.80-------
2024-04-20 09:03 amESE 13 19----29.80-------
2024-04-20 08:53 am E 14 19----29.81-------
2024-04-20 08:44 am E 13 18----29.81-------
2024-04-20 08:33 am E 14 18----29.81-------
2024-04-20 08:24 amESE 12 18----29.81-------
2024-04-20 08:14 am E 12 19----29.82-------
2024-04-20 08:08 am E 11 15----29.83-------
2024-04-20 08:03 am E 11 15----29.83-------
2024-04-20 07:44 am E 14 18----29.83-------
2024-04-20 07:33 am E 14 18----29.83-------
2024-04-20 07:23 am E 15 18----29.83-------
2024-04-20 07:13 am E 16 18----29.83-------
2024-04-20 07:03 am E 14 18----29.84-------
2024-04-20 06:53 am E 15 22----29.84-------
2024-04-20 06:43 am E 14 16----29.84-------
2024-04-20 06:33 am E 14 18----29.85-------
2024-04-20 06:23 am E 16 21----29.85-------
2024-04-20 06:13 am E 17 21----29.85-------
2024-04-20 06:03 am E 16 22----29.85-------
2024-04-20 05:53 am E 16 22----29.85-------
2024-04-20 05:43 am E 15 18----29.86-------
2024-04-20 05:33 am E 15 20----29.86-------
2024-04-20 05:23 am E 15 19----29.86-------
2024-04-20 05:14 am E 16 20----29.86-------
2024-04-20 05:03 am E 16 19----29.87-------
2024-04-20 04:53 am E 16 20----29.87-------
2024-04-20 04:44 am E 15 21----29.87-------
2024-04-20 04:33 am E 16 22----29.88-------
2024-04-20 04:23 am E 15 22----29.88-------
2024-04-20 04:13 amESE 12 18----29.88-------
2024-04-20 04:03 am E 15 19----29.88-------
2024-04-20 03:53 am E 18 21----29.88-------
2024-04-20 03:43 am E 16 20----29.89-------
2024-04-20 03:33 am E 15 19----29.89-------
2024-04-20 03:23 am E 14 18----29.89-------
2024-04-20 03:13 am E 13 20----29.90-------
2024-04-20 03:03 am E 14 17----29.90-------
2024-04-20 02:53 am E 14 18----29.90-------
2024-04-20 02:43 am E 15 18----29.90-------
2024-04-20 02:33 am E 15 19----29.91-------
2024-04-20 02:23 am E 13 18----29.91-------
2024-04-20 02:14 am E 13 17----29.91-------
2024-04-20 02:03 am E 13 17----29.91-------
2024-04-20 01:53 am E 14 17----29.91-------
2024-04-20 01:43 am E 13 17----29.92-------
2024-04-20 01:33 am E 12 17----29.92-------
2024-04-20 01:23 am E 12 17----29.92-------
2024-04-20 01:13 am E 13 16----29.92-------
2024-04-20 01:03 am E 13 19----29.93-------
2024-04-20 12:53 am E 11 16----29.93-------